STARLINK-3127 (49450 NORAD) Tracking and Keplerian Element Data

This shows tracking and keplerian element data for the satellite.

Feedback or suggestion? Click here.




ElementValue
Catalog49450
NameSTARLINK-3127
Epoch Orbit370
Epoch Day15.91668981
Epoch Year2022
RAAN180.2405
Inclination53.2173
Eccentricity0.0001743
Argument of Perigee29.5976
Mean Anonmoly85.9024
Mean Motion15.54230494
Decay Rate-0.00651767
L11 49450U 21104AU 22015.91668981 -.00651767 00000+0 -10649-1 0 9992
L22 49450 53.2173 180.2405 0001743 29.5976 85.9024 15.54230494 3703

Live tracking and technical data element details for STARLINK-3127 (NORAD 49450). STARLINK-3127 can be tracked NOW for your location showing map with azimuth and elevation plus other details from your city location.

Track the satellite on the map from your city or location and see movement details for azimuth, elevation, latitude, longitude, range, height, and movement on the map or in text.







IsCatalogInMostPopularTable: catalog: 49450, numindb: 11
Update: records affected: 1



GetName: 49450 STARLINK-3127

Hit Count: updated at: Thu, 20 Jan 2022 16:54:45 GMT